Location: Augustenthal
(51.7167°N, 10.2833°E)
Time: 16:48:20
(UTC+00:00)

SL-24 R/B - Pass Details

Date: 18 May 2021
Orbit: 616 x 1346 km, 98.0° (Epoch: 21 June)

Event Time Altitude Azimuth Distance (km) Brightness Sun altitude
Exits shadow 23:43:25 30° 146° (SSE) 1,120 5.0 -18.2°
Maximum altitude 23:45:25 67° 72° (ENE) 674 4.3 -18.2°
Drops below altitude 10° 23:49:38 10° 350° (N) 2,004 7.8 -18.1°
Sets 23:51:51 0° 348° (NNW) 2,943 8.8 -18.1°
